Theta_e
311 310 310 309 309 310 310 310 309 309 309 309 309 307 302 305 305 305 308 312 313 312 312 310 309 310 309 301 301 297 296 299 304 308 313 314 318 317 318 316 317 320 320 320 319 319 319
310 309 309 309 309 309 309 309 308 307 308 308 302 300 297 298 297 299 307 308 312 310 308 310 309 305 305 298 298 297 296 300 300 302 308 314 318 317 316 316 315 315 316 315 315 315 314
309 309 309 309 309 309 309 308 304 304 302 303 299 296 296 296 296 299 304 305 309 311 311 310 308 305 299 299 296 296 296 299 298 299 307 309 310 316 315 316 314 315 316 314 312 312 313
309 308 308 309 309 309 308 304 300 298 298 297 297 296 295 296 296 300 303 303 307 309 308 307 308 301 299 297 296 296 297 298 298 299 300 309 311 314 315 314 315 315 313 313 310 308 309
308 308 308 308 308 308 308 304 298 296 295 294 295 295 295 296 296 300 302 299 303 306 303 299 303 297 297 297 296 296 297 297 298 301 301 310 313 313 304 311 312 305 310 306 304 307 306
307 307 307 308 308 306 305 300 296 295 295 294 294 294 294 296 297 297 302 302 299 301 299 299 297 296 296 296 295 296 298 297 297 297 298 298 301 299 296 300 303 302 303 303 303 303 298
305 307 307 307 307 304 300 297 295 295 294 294 294 294 294 296 297 295 301 302 298 298 297 295 296 296 297 296 296 295 296 297 296 294 294 294 295 295 294 298 301 300 299 297 295 298 296
303 306 306 306 306 301 297 295 295 294 294 293 294 294 295 297 298 295 298 298 298 299 296 296 296 295 296 295 295 294 296 295 294 294 294 293 293 293 297 297 295 293 293 293 294 295 296
303 305 306 304 301 303 297 295 294 294 294 293 293 294 295 298 297 295 298 298 301 302 298 298 296 295 295 295 294 294 294 295 293 293 293 293 293 294 297 294 294 293 292 293 293 295 295
302 304 304 303 298 302 297 295 294 294 293 292 294 294 295 298 297 295 294 298 301 302 296 295 296 295 295 296 294 295 295 294 292 292 292 292 293 295 295 295 291 293 293 293 295 292 293
302 303 303 301 297 300 295 294 294 294 293 292 294 294 295 295 294 294 294 301 302 302 300 297 295 295 294 293 293 293 294 294 292 292 290 292 292 292 293 290 290 291 293 293 293 292 291
301 303 303 301 298 298 297 294 294 294 292 292 294 293 292 292 294 295 297 302 302 302 296 295 294 294 293 293 293 293 293 293 293 292 291 291 291 292 293 289 291 292 292 291 291 289 285
301 302 302 300 295 295 298 293 294 292 292 291 293 293 294 294 294 295 300 301 297 298 295 295 293 293 292 292 292 291 292 291 292 291 291 291 291 291 291 289 291 292 290 292 291 291 294
301 302 301 299 295 295 296 293 293 292 291 292 293 295 293 294 295 295 297 292 296 296 294 294 294 293 292 292 291 291 291 292 291 289 290 291 291 291 290 289 291 292 292 293 295 295 292
303 301 300 299 295 298 294 293 292 291 291 293 295 296 293 294 296 296 291 294 295 294 294 294 292 291 291 293 291 289 292 293 290 289 286 286 291 289 289 291 291 294 294 291 294 292 292
302 301 300 299 295 300 293 293 291 291 291 294 297 297 293 295 296 294 292 295 293 294 294 292 292 292 292 291 289 288 292 289 289 289 288 285 284 288 290 289 289 289 287 290 289 289 288
302 301 300 298 297 296 293 292 291 290 292 296 297 294 294 295 294 290 292 292 293 293 293 293 292 292 291 289 288 289 292 289 287 287 288 289 285 288 290 287 287 287 280 281 281 283 290
303 301 298 299 297 296 293 291 290 290 295 297 292 292 294 294 290 289 291 292 293 292 291 292 291 290 290 288 287 291 289 287 286 286 285 287 283 287 288 282 281 281 277 272 280 283 281
301 298 297 298 297 294 293 290 289 290 295 296 290 291 294 293 290 291 292 291 291 291 291 291 291 290 287 287 281 288 287 286 284 285 285 282 283 283 286 283 284 281 279 277 274 275 275
303 300 299 298 296 295 292 290 289 290 295 296 292 293 290 288 288 289 290 290 290 290 290 289 288 287 285 285 285 281 285 286 285 284 286 283 275 281 282 284 279 277 279 278 277 274 272
304 303 300 298 297 296 292 289 289 289 295 296 290 291 291 291 290 289 289 289 289 289 289 288 287 287 280 278 284 285 284 284 283 281 279 277 275 280 277 274 276 276 277 276 275 273 274
303 299 300 299 297 296 292 289 289 290 295 294 291 291 287 286 288 287 287 286 288 287 286 288 285 285 282 278 279 278 278 279 278 279 275 270 272 274 273 276 278 274 274 272 274 274 269
302 300 301 299 297 295 290 289 289 290 293 293 292 290 288 289 287 284 284 287 287 285 285 287 282 281 283 284 282 280 279 276 275 273 270 265 267 270 272 278 276 271 272 273 272 268 265
300 298 300 300 297 295 291 290 290 291 292 293 292 289 285 286 288 289 286 286 285 285 281 282 282 277 282 280 279 277 274 272 270 266 269 264 264 267 272 270 272 274 264 268 270 269 264
299 299 300 299 296 292 292 290 289 291 293 293 293 290 283 280 287 285 284 283 281 280 280 284 282 281 281 280 276 275 277 275 274 271 268 263 263 268 272 269 273 272 271 268 266 270 261
300 298 299 298 295 291 293 290 290 293 293 293 290 289 284 283 283 285 281 281 278 276 278 282 280 280 281 280 278 275 279 276 274 273 271 267 261 269 263 271 274 273 268 258 259 269 265
299 298 299 296 293 294 294 291 290 290 290 291 287 286 283 278 277 279 279 280 279 277 278 279 277 279 279 274 275 277 277 270 273 272 272 267 262 268 265 265 269 268 266 259 269 273 268
299 299 297 294 294 294 295 293 289 289 288 287 283 283 282 276 275 276 278 278 277 277 278 274 278 277 275 277 280 278 274 272 270 269 269 271 269 268 260 265 272 267 265 269 271 261 262
299 297 296 295 294 295 294 292 290 289 288 286 281 280 280 277 275 274 274 275 275 277 274 269 275 274 278 277 275 273 276 270 270 273 265 269 271 271 271 273 264 266 268 266 260 266 264
Wind_Speed
8 9 9 10 10 10 12 13 15 17 18 18 19 20 20 20 19 20 14 13 16 13 9 13 13 10 5 7 5 25 26 14 9 9 2 1 1 1 3 3 3 9 13 11 13 13 13
7 8 9 9 9 10 11 13 15 16 18 19 20 20 21 20 20 19 11 12 14 20 23 16 13 15 5 9 15 28 29 15 14 8 2 3 2 2 4 4 2 6 10 8 8 11 10
6 7 8 8 8 10 12 13 15 17 18 19 20 21 21 19 20 15 9 9 11 13 13 13 10 15 28 7 23 30 30 13 18 11 2 2 3 1 2 4 3 3 10 8 7 7 4
5 7 7 7 8 10 11 13 14 16 18 20 20 20 20 17 20 13 12 11 8 10 10 8 9 12 7 18 27 35 30 26 14 14 6 6 2 1 2 4 6 5 2 4 8 16 10
6 6 7 7 8 9 11 12 14 16 18 19 20 19 19 15 18 12 13 24 9 10 14 13 8 8 4 16 33 32 27 17 14 16 5 2 4 5 8 5 3 10 4 11 10 9 10
5 6 6 7 8 9 10 12 14 16 17 19 19 18 18 13 16 15 11 12 30 10 7 6 16 7 8 5 23 31 22 31 6 7 7 9 6 5 6 8 2 6 4 5 6 4 11
3 5 6 7 8 9 10 12 14 16 18 20 19 19 18 12 13 17 8 3 5 7 20 10 3 5 2 4 17 21 25 11 11 8 6 8 11 5 6 5 2 3 1 3 4 4 5
2 3 3 5 7 8 9 11 13 16 18 20 18 19 17 10 6 14 6 5 3 6 7 8 6 7 6 16 5 15 18 7 12 12 6 6 10 6 5 5 6 6 2 5 5 10 5
2 2 3 4 5 9 10 11 13 15 18 20 19 18 16 6 2 11 16 6 2 4 6 2 4 5 8 7 7 14 8 5 9 10 7 8 5 7 7 8 11 6 3 4 7 4 5
3 2 3 3 5 8 10 11 13 16 18 19 16 17 14 3 2 3 5 4 3 2 5 8 7 7 15 2 7 15 12 4 8 7 5 5 7 5 5 4 8 4 5 7 9 8 6
5 3 3 3 4 8 9 11 13 16 18 17 12 13 10 11 3 4 8 4 5 2 2 4 4 4 6 7 4 13 14 7 6 5 6 3 6 5 5 7 7 8 7 9 13 13 1
6 5 3 4 4 7 9 11 14 17 17 15 7 11 12 5 8 7 4 4 2 3 2 4 3 5 4 5 4 3 8 8 3 3 5 4 4 3 1 11 3 10 7 11 4 2 1
8 6 5 4 4 7 9 10 14 17 17 15 4 7 8 12 5 7 4 2 3 5 2 4 3 4 3 6 6 6 8 13 5 5 7 7 6 6 2 10 9 7 5 3 4 3 3
10 7 6 6 4 7 7 11 14 16 17 14 3 2 5 10 11 2 4 3 4 1 1 2 2 2 5 7 4 7 4 3 10 5 2 3 5 5 11 3 5 11 2 2 5 3 6
12 7 7 6 5 4 7 11 15 16 16 11 1 1 1 19 10 7 4 6 2 2 2 2 3 4 4 4 3 6 5 3 4 5 3 2 4 10 3 3 5 6 3 1 3 3 2
13 9 8 6 7 5 6 11 14 15 13 6 1 1 5 15 5 5 5 5 3 2 2 3 2 1 3 4 5 6 3 4 5 4 2 3 5 3 6 5 7 4 3 4 2 3 4
14 11 8 6 6 5 6 10 13 14 11 2 1 2 12 8 4 6 4 3 4 3 2 2 2 2 3 2 1 2 4 2 5 7 4 3 3 6 4 5 2 4 4 4 2 0 3
14 11 8 7 6 5 6 9 11 12 7 2 3 1 13 7 4 2 2 7 5 3 5 3 4 3 3 2 2 2 3 1 6 3 2 2 3 3 2 4 8 5 2 4 3 5 1
18 14 10 10 6 5 6 8 9 8 7 3 2 1 6 2 4 2 2 4 3 3 2 2 2 2 2 3 3 1 3 4 6 5 2 3 2 3 3 3 1 5 2 1 2 1 4
19 15 13 9 7 4 6 7 7 4 2 4 3 1 4 4 2 6 5 4 4 4 3 4 3 4 4 2 3 2 1 2 3 6 10 3 2 6 5 3 2 2 4 4 1 1 2
19 17 13 10 7 5 6 6 5 1 3 5 3 1 1 2 2 5 4 3 6 4 2 3 2 3 6 3 2 3 2 3 3 8 4 4 3 1 2 1 3 1 2 5 2 3 4
22 17 15 11 9 6 6 6 4 2 5 4 4 4 3 2 2 6 3 3 5 4 4 2 5 4 5 6 6 7 4 1 3 3 3 4 1 2 3 2 2 2 4 4 4 2 5
23 19 16 14 10 7 6 5 2 4 7 4 3 4 4 4 3 4 4 6 6 9 4 3 8 5 4 5 4 2 4 3 4 4 1 3 3 3 4 1 2 5 5 3 4 4 5
25 21 18 15 11 6 5 3 1 4 8 5 5 6 4 2 3 4 6 3 8 4 7 2 4 5 4 14 10 7 6 5 6 3 2 4 3 2 3 3 3 5 3 5 6 9 7
26 23 19 16 10 6 6 2 1 2 9 9 9 5 3 2 4 4 8 5 6 4 3 4 2 4 15 4 3 3 3 4 3 2 1 2 4 1 3 3 5 4 3 5 4 6 6
28 25 21 16 10 9 7 4 5 8 9 14 11 8 4 6 5 4 5 4 4 3 3 3 3 7 3 2 3 4 3 3 3 5 5 4 5 4 3 3 5 5 3 4 4 4 7
29 25 21 15 11 12 9 6 5 7 8 12 7 9 7 4 2 3 4 6 5 3 3 3 4 2 2 2 2 3 3 4 2 4 4 2 3 4 2 3 7 5 5 4 5 6 6
28 25 20 14 13 12 11 7 7 8 9 7 8 7 4 3 1 1 2 5 3 2 5 4 4 2 2 2 3 3 3 4 2 3 5 6 5 3 3 2 7 7 4 6 6 1 5
27 23 19 15 14 13 12 11 9 8 7 7 6 12 12 10 3 3 5 4 1 4 5 1 3 4 5 3 1 3 2 2 3 3 2 2 6 4 8 6 4 13 7 9 4 5 5
Wind_Direction
14 12 16 20 21 25 16 10 7 3 360 359 357 357 359 356 356 356 8 18 18 27 70 110 117 116 92 59 38 354 355 352 8 28 144 184 178 198 247 317 331 258 271 280 298 286 281
13 16 11 16 17 17 20 11 7 6 0 360 359 1 4 5 5 8 25 38 45 67 81 96 95 73 76 73 347 3 2 8 16 6 354 190 224 238 251 278 291 320 329 329 328 311 293
11 10 9 14 16 14 15 13 9 6 3 1 2 3 6 11 12 18 36 54 72 79 86 101 94 66 61 45 10 8 6 7 1 346 259 241 240 197 4 309 279 219 297 296 285 331 317
16 9 6 9 11 17 13 12 10 8 6 3 3 3 6 15 14 28 58 61 92 89 70 53 67 71 95 31 15 18 8 11 15 1 317 284 270 287 347 319 339 310 355 358 9 19 345
2 8 0 4 8 15 12 11 9 9 9 4 3 3 4 13 18 31 83 59 78 95 69 59 73 87 30 8 22 8 23 358 352 28 83 83 66 63 13 0 335 40 352 347 338 358 352
357 359 2 357 2 12 12 10 11 7 7 4 2 2 1 7 21 23 156 88 61 70 33 57 36 70 3 347 18 11 36 30 352 335 31 28 50 61 23 38 8 313 328 313 319 5 54
341 357 359 353 359 7 5 9 9 6 4 2 2 0 358 1 25 13 167 159 27 20 44 89 56 102 263 24 23 12 0 34 10 36 36 10 60 40 41 61 154 215 267 274 312 350 103
307 337 3 348 348 357 359 5 9 4 1 0 0 1 1 358 38 24 89 75 82 151 84 83 86 48 19 57 39 6 12 60 25 39 18 42 45 331 106 65 55 30 29 315 295 315 322
292 328 327 342 354 344 351 358 6 3 0 359 358 356 358 6 59 36 67 44 109 134 96 44 73 28 357 106 38 4 19 38 49 30 37 81 324 332 68 35 22 339 193 274 255 290 262
274 285 311 319 344 335 346 356 2 0 359 0 2 1 7 51 127 33 59 1 158 73 91 333 354 1 355 107 40 8 18 69 34 20 8 57 333 30 70 51 13 290 284 313 302 335 288
252 252 280 294 330 330 343 352 357 358 358 360 6 11 18 40 56 49 332 131 154 24 26 348 7 340 352 79 244 359 16 36 69 36 63 293 328 351 72 349 323 252 299 279 282 268 32
237 242 261 291 316 334 339 351 354 354 355 355 5 14 22 359 50 15 13 139 140 64 282 345 24 9 36 30 41 88 23 31 58 66 28 330 283 57 351 334 265 299 310 297 276 108 31
225 226 251 265 302 323 335 350 351 354 351 347 350 46 33 39 337 348 150 91 33 89 339 353 340 24 56 11 18 36 67 47 32 17 20 331 328 356 47 348 325 344 16 328 336 344 241
221 220 232 247 285 311 333 346 352 354 347 344 336 215 10 5 349 295 138 65 86 147 29 11 346 332 79 16 33 19 71 59 27 30 60 20 324 2 343 250 282 289 217 230 302 282 280
213 216 230 248 274 289 331 346 350 350 347 346 51 244 351 349 341 157 81 55 127 151 145 8 358 67 32 7 50 40 79 45 43 22 114 17 264 319 335 353 1 315 37 293 280 284 317
208 209 229 254 270 280 337 345 348 347 348 342 87 319 358 354 69 101 72 112 121 96 95 72 112 80 77 15 37 41 32 337 343 14 192 277 318 259 320 0 25 68 332 26 9 308 290
205 200 220 248 267 289 332 346 346 348 352 344 98 52 353 1 52 51 98 126 118 109 108 111 157 106 93 73 96 38 1 86 353 331 21 55 142 296 356 22 332 356 13 358 180 16 295
199 201 213 251 259 294 331 345 348 352 14 74 87 35 1 19 55 53 103 133 109 107 53 57 85 93 112 109 82 121 134 46 348 332 14 227 191 273 338 58 87 71 145 124 124 304 308
202 205 206 229 244 280 322 342 351 358 27 79 95 270 1 13 125 113 104 80 88 103 55 95 113 87 75 110 90 92 127 115 32 31 60 306 319 336 296 277 226 67 45 260 213 115 237
203 204 204 210 229 274 307 334 347 353 60 108 91 31 346 45 70 123 126 141 121 40 74 68 108 77 81 83 54 201 53 92 31 10 18 120 160 175 209 240 103 28 7 344 241 115 270
199 197 206 209 220 256 299 322 343 347 141 138 47 207 233 122 13 101 97 130 141 148 93 62 61 119 143 119 56 174 52 353 60 4 39 76 197 61 358 11 74 137 322 329 328 222 186
196 206 205 209 219 245 293 301 340 158 143 100 134 135 32 86 78 91 22 204 148 129 129 184 141 147 151 151 181 197 136 134 204 339 62 7 259 90 321 278 133 272 253 280 242 237 282
193 194 199 207 219 241 276 298 343 175 169 119 127 87 103 167 120 98 203 168 174 124 9 104 149 116 119 162 140 157 145 107 150 124 62 67 99 68 276 290 67 342 224 216 258 205 166
189 189 195 201 213 238 250 297 105 183 189 152 149 122 99 191 133 172 152 116 144 145 144 175 110 109 134 102 85 56 53 69 67 27 137 128 94 98 227 32 8 239 219 174 224 251 220
189 189 190 198 206 211 234 187 131 136 181 181 147 139 124 127 140 124 136 115 81 51 101 133 111 139 133 107 79 56 349 26 350 221 5 101 114 64 138 192 291 332 201 179 134 281 200
186 185 187 195 199 197 200 164 125 130 146 159 116 118 106 124 233 131 133 159 144 137 26 107 63 143 119 127 103 143 190 170 278 336 111 87 82 119 62 137 218 234 215 147 113 306 208
183 183 186 187 196 183 179 168 151 158 163 163 117 133 102 108 254 134 165 170 136 115 129 136 173 113 78 129 119 157 210 168 192 183 191 25 8 155 175 219 285 218 148 133 80 239 196
181 178 178 189 189 182 174 169 160 152 159 162 110 132 112 103 6 24 163 135 116 153 148 193 85 293 70 146 155 184 139 206 118 203 189 167 146 202 83 62 290 148 88 163 211 245 187
177 178 179 182 178 171 168 162 159 167 170 157 103 110 109 79 118 104 92 87 63 167 127 350 167 164 175 102 167 115 156 147 148 241 339 298 191 181 181 214 227 195 201 214 166 177 210